Time,TemperatureF,DewpointF,PressureIn,WindDirection,WindDirectionDegrees,WindSpeedMPH,WindSpeedGustMPH,Humidity,HourlyPrecipIn,Conditions,Clouds,dailyrainin,SoftwareType,DateUTC
2013-01-17 00:00:00,46.9,35.4,30.24,WSW,243,0.0,0.0,64,0.00,,,0.00,WeatherTracker,2013-01-17 08:00:00,
2013-01-17 00:05:00,46.9,35.8,30.23,WSW,243,1.0,0.0,65,0.00,,,0.00,WeatherTracker,2013-01-17 08:05:00,
2013-01-17 00:10:00,46.7,35.6,30.24,WSW,243,0.0,0.0,65,0.00,,,0.00,WeatherTracker,2013-01-17 08:10:00,
2013-01-17 00:15:00,46.6,35.1,30.24,WSW,243,0.0,0.0,64,0.00,,,0.00,WeatherTracker,2013-01-17 08:15:00,
2013-01-17 00:20:00,46.3,35.2,30.24,WSW,238,0.0,0.0,65,0.00,,,0.00,WeatherTracker,2013-01-17 08:20:00,
2013-01-17 00:25:00,46.2,35.1,30.24,West,277,0.0,0.0,65,0.00,,,0.00,WeatherTracker,2013-01-17 08:25:00,
2013-01-17 00:30:00,46.4,34.9,30.24,WNW,300,1.0,0.0,64,0.00,,,0.00,WeatherTracker,2013-01-17 08:30:00,
2013-01-17 00:35:00,46.6,35.1,30.24,NW,319,1.0,0.0,64,0.00,,,0.00,WeatherTracker,2013-01-17 08:35:00,
2013-01-17 00:40:00,46.5,35.0,30.24,NW,318,0.0,0.0,64,0.00,,,0.00,WeatherTracker,2013-01-17 08:40:00,
2013-01-17 00:45:00,46.4,34.9,30.24,WNW,300,1.0,0.0,64,0.00,,,0.00,WeatherTracker,2013-01-17 08:45:00,
2013-01-17 00:50:00,46.7,35.2,30.24,WNW,293,1.0,0.0,64,0.00,,,0.00,WeatherTracker,2013-01-17 08:50:00,
2013-01-17 00:55:00,46.8,35.3,30.24,WNW,293,1.0,0.0,64,0.00,,,0.00,WeatherTracker,2013-01-17 08:55:00,
2013-01-17 01:00:00,46.7,35.2,30.24,WNW,293,0.0,0.0,64,0.00,,,0.00,WeatherTracker,2013-01-17 09:00:00,
2013-01-17 01:05:00,46.5,35.4,30.24,WNW,294,0.0,0.0,65,0.00,,,0.00,WeatherTracker,2013-01-17 09:05:00,
2013-01-17 01:10:00,46.2,35.5,30.24,SW,225,0.0,0.0,66,0.00,,,0.00,WeatherTracker,2013-01-17 09:10:00,
2013-01-17 01:15:00,45.6,34.9,30.24,SSW,205,0.0,0.0,66,0.00,,,0.00,WeatherTracker,2013-01-17 09:15:00,
2013-01-17 01:21:00,44.9,34.6,30.24,SSW,203,0.0,0.0,67,0.00,,,0.00,WeatherTracker,2013-01-17 09:21:00,
2013-01-17 01:26:00,44.7,34.8,30.24,SSW,203,0.0,0.0,68,0.00,,,0.00,WeatherTracker,2013-01-17 09:26:00,
2013-01-17 01:31:00,44.7,34.8,30.24,SSW,205,0.0,0.0,68,0.00,,,0.00,WeatherTracker,2013-01-17 09:31:00,
2013-01-17 01:36:00,44.4,34.5,30.24,SSW,205,0.0,0.0,68,0.00,,,0.00,WeatherTracker,2013-01-17 09:36:00,
2013-01-17 01:41:00,44.0,34.5,30.24,SSW,205,0.0,0.0,69,0.00,,,0.00,WeatherTracker,2013-01-17 09:41:00,
2013-01-17 01:46:00,43.7,34.6,30.24,SSW,205,0.0,0.0,70,0.00,,,0.00,WeatherTracker,2013-01-17 09:46:00,
2013-01-17 01:51:00,43.7,34.9,30.24,SSW,205,0.0,0.0,71,0.00,,,0.00,WeatherTracker,2013-01-17 09:51:00,
2013-01-17 01:56:00,43.5,35.1,30.24,SSW,205,0.0,0.0,72,0.00,,,0.00,WeatherTracker,2013-01-17 09:56:00,
2013-01-17 02:01:00,43.3,34.9,30.24,SSW,205,0.0,0.0,72,0.00,,,0.00,WeatherTracker,2013-01-17 10:01:00,
2013-01-17 02:06:00,43.2,35.1,30.24,SSE,156,1.0,0.0,73,0.00,,,0.00,WeatherTracker,2013-01-17 10:06:00,
2013-01-17 02:11:00,43.0,34.6,30.24,SSE,155,0.0,0.0,72,0.00,,,0.00,WeatherTracker,2013-01-17 10:11:00,
2013-01-17 02:16:00,42.8,34.8,30.24,SSE,155,0.0,0.0,73,0.00,,,0.00,WeatherTracker,2013-01-17 10:16:00,
2013-01-17 02:21:00,42.7,35.0,30.24,South,174,0.0,0.0,74,0.00,,,0.00,WeatherTracker,2013-01-17 10:21:00,
2013-01-17 02:26:00,42.7,35.0,30.24,South,174,0.0,0.0,74,0.00,,,0.00,WeatherTracker,2013-01-17 10:26:00,
2013-01-17 02:31:00,42.8,35.1,30.24,South,174,0.0,0.0,74,0.00,,,0.00,WeatherTracker,2013-01-17 10:31:00,
2013-01-17 02:36:00,42.7,35.3,30.23,South,174,0.0,0.0,75,0.00,,,0.00,WeatherTracker,2013-01-17 10:36:00,
2013-01-17 02:41:00,42.7,35.0,30.23,South,174,0.0,0.0,74,0.00,,,0.00,WeatherTracker,2013-01-17 10:41:00,
2013-01-17 02:46:00,42.5,35.1,30.23,South,174,0.0,0.0,75,0.00,,,0.00,WeatherTracker,2013-01-17 10:46:00,
2013-01-17 02:51:00,42.7,35.7,30.23,South,174,0.0,0.0,76,0.00,,,0.00,WeatherTracker,2013-01-17 10:51:00,
2013-01-17 02:56:00,42.8,35.4,30.23,South,174,0.0,0.0,75,0.00,,,0.00,WeatherTracker,2013-01-17 10:56:00,
2013-01-17 03:01:00,42.5,35.1,30.23,South,174,0.0,0.0,75,0.00,,,0.00,WeatherTracker,2013-01-17 11:01:00,
2013-01-17 03:06:00,42.5,35.5,30.23,SW,224,0.0,0.0,76,0.00,,,0.00,WeatherTracker,2013-01-17 11:06:00,
2013-01-17 03:12:00,42.5,35.1,30.23,SW,227,0.0,0.0,75,0.00,,,0.00,WeatherTracker,2013-01-17 11:12:00,
2013-01-17 03:17:00,42.5,35.5,30.23,SW,228,0.0,0.0,76,0.00,,,0.00,WeatherTracker,2013-01-17 11:17:00,
2013-01-17 03:22:00,42.7,35.3,30.23,SSW,204,0.0,0.0,75,0.00,,,0.00,WeatherTracker,2013-01-17 11:22:00,
2013-01-17 03:27:00,42.8,35.4,30.23,SSW,204,0.0,0.0,75,0.00,,,0.00,WeatherTracker,2013-01-17 11:27:00,
2013-01-17 03:32:00,42.5,34.8,30.23,SSW,205,0.0,0.0,74,0.00,,,0.00,WeatherTracker,2013-01-17 11:32:00,
2013-01-17 03:37:00,42.4,35.0,30.23,SSW,207,0.0,0.0,75,0.00,,,0.00,WeatherTracker,2013-01-17 11:37:00,
2013-01-17 03:42:00,42.5,35.1,30.23,SSW,210,0.0,0.0,75,0.00,,,0.00,WeatherTracker,2013-01-17 11:42:00,
2013-01-17 03:47:00,42.5,35.1,30.23,SSW,210,0.0,0.0,75,0.00,,,0.00,WeatherTracker,2013-01-17 11:47:00,
2013-01-17 03:52:00,42.5,35.1,30.23,SSW,210,0.0,0.0,75,0.00,,,0.00,WeatherTracker,2013-01-17 11:52:00,
2013-01-17 03:57:00,42.6,35.6,30.23,SSW,210,0.0,0.0,76,0.00,,,0.00,WeatherTracker,2013-01-17 11:57:00,
2013-01-17 04:02:00,42.7,35.7,30.23,SSW,210,0.0,0.0,76,0.00,,,0.00,WeatherTracker,2013-01-17 12:02:00,
2013-01-17 04:07:00,42.7,35.7,30.22,SSW,210,0.0,0.0,76,0.00,,,0.00,WeatherTracker,2013-01-17 12:07:00,
2013-01-17 04:12:00,42.4,35.0,30.22,SSW,210,0.0,0.0,75,0.00,,,0.00,WeatherTracker,2013-01-17 12:12:00,
2013-01-17 04:17:00,41.9,34.6,30.22,SSW,210,0.0,0.0,75,0.00,,,0.00,WeatherTracker,2013-01-17 12:17:00,
2013-01-17 04:22:00,41.9,35.2,30.22,SSW,210,0.0,0.0,77,0.00,,,0.00,WeatherTracker,2013-01-17 12:22:00,
2013-01-17 04:27:00,41.8,35.1,30.22,SSW,211,0.0,0.0,77,0.00,,,0.00,WeatherTracker,2013-01-17 12:27:00,
2013-01-17 04:32:00,41.8,35.1,30.22,SSW,212,0.0,0.0,77,0.00,,,0.00,WeatherTracker,2013-01-17 12:32:00,
2013-01-17 04:37:00,41.9,35.5,30.22,SSW,211,0.0,0.0,78,0.00,,,0.00,WeatherTracker,2013-01-17 12:37:00,
2013-01-17 04:42:00,42.1,35.4,30.22,SSW,211,0.0,0.0,77,0.00,,,0.00,WeatherTracker,2013-01-17 12:42:00,
2013-01-17 04:47:00,41.9,35.2,30.22,SSW,212,0.0,0.0,77,0.00,,,0.00,WeatherTracker,2013-01-17 12:47:00,
2013-01-17 04:52:00,41.8,35.1,30.22,SSW,211,0.0,0.0,77,0.00,,,0.00,WeatherTracker,2013-01-17 12:52:00,
2013-01-17 04:57:00,41.7,35.0,30.21,SSW,211,0.0,0.0,77,0.00,,,0.00,WeatherTracker,2013-01-17 12:57:00,
2013-01-17 05:03:00,41.5,34.8,30.21,SSW,211,0.0,0.0,77,0.00,,,0.00,WeatherTracker,2013-01-17 13:03:00,
2013-01-17 05:08:00,41.3,35.0,30.21,SSW,212,0.0,0.0,78,0.00,,,0.00,WeatherTracker,2013-01-17 13:08:00,
2013-01-17 05:13:00,41.4,35.1,30.21,SSW,211,0.0,0.0,78,0.00,,,0.00,WeatherTracker,2013-01-17 13:13:00,
2013-01-17 05:18:00,41.5,35.5,30.21,SSW,211,0.0,0.0,79,0.00,,,0.00,WeatherTracker,2013-01-17 13:18:00,
2013-01-17 05:23:00,41.7,35.4,30.21,SSW,212,0.0,0.0,78,0.00,,,0.00,WeatherTracker,2013-01-17 13:23:00,
2013-01-17 05:28:00,41.6,35.3,30.21,SSW,211,0.0,0.0,78,0.00,,,0.00,WeatherTracker,2013-01-17 13:28:00,
2013-01-17 05:33:00,41.2,34.5,30.21,SSW,211,0.0,0.0,77,0.00,,,0.00,WeatherTracker,2013-01-17 13:33:00,
2013-01-17 05:38:00,41.0,34.7,30.21,SSW,211,0.0,0.0,78,0.00,,,0.00,WeatherTracker,2013-01-17 13:38:00,
2013-01-17 05:43:00,40.8,34.5,30.21,SSW,211,0.0,0.0,78,0.00,,,0.00,WeatherTracker,2013-01-17 13:43:00,
2013-01-17 05:48:00,40.9,34.9,30.21,SSW,211,0.0,0.0,79,0.00,,,0.00,WeatherTracker,2013-01-17 13:48:00,
2013-01-17 05:53:00,40.8,34.8,30.21,SSW,208,0.0,0.0,79,0.00,,,0.00,WeatherTracker,2013-01-17 13:53:00,
2013-01-17 05:58:00,40.8,34.8,30.21,SSW,208,0.0,0.0,79,0.00,,,0.00,WeatherTracker,2013-01-17 13:58:00,
2013-01-17 06:03:00,40.6,34.6,30.21,SSW,208,0.0,0.0,79,0.00,,,0.00,WeatherTracker,2013-01-17 14:03:00,
2013-01-17 06:08:00,40.6,34.9,30.21,SSW,208,0.0,0.0,80,0.00,,,0.00,WeatherTracker,2013-01-17 14:08:00,
2013-01-17 06:13:00,41.0,35.6,30.21,SSW,208,0.0,0.0,81,0.00,,,0.00,WeatherTracker,2013-01-17 14:13:00,
2013-01-17 06:18:00,41.3,35.6,30.21,SSW,208,0.0,0.0,80,0.00,,,0.00,WeatherTracker,2013-01-17 14:18:00,
2013-01-17 06:23:00,41.3,35.6,30.21,SSW,208,0.0,0.0,80,0.00,,,0.00,WeatherTracker,2013-01-17 14:23:00,
2013-01-17 06:28:00,41.6,36.2,30.21,SSW,208,0.0,0.0,81,0.00,,,0.00,WeatherTracker,2013-01-17 14:28:00,
2013-01-17 06:33:00,41.5,35.8,30.21,SSW,208,0.0,0.0,80,0.00,,,0.00,WeatherTracker,2013-01-17 14:33:00,
2013-01-17 06:38:00,41.8,37.0,30.21,SSW,208,0.0,0.0,83,0.00,,,0.00,WeatherTracker,2013-01-17 14:38:00,
2013-01-17 06:43:00,42.7,37.3,30.21,SSW,209,0.0,0.0,81,0.00,,,0.00,WeatherTracker,2013-01-17 14:43:00,
2013-01-17 06:48:00,43.3,39.1,30.21,SSW,208,0.0,0.0,85,0.00,,,0.00,WeatherTracker,2013-01-17 14:48:00,
2013-01-17 06:54:00,42.7,37.0,30.21,SSW,210,0.0,0.0,80,0.00,,,0.00,WeatherTracker,2013-01-17 14:54:00,
2013-01-17 06:59:00,42.0,36.3,30.21,SSW,210,0.0,0.0,80,0.00,,,0.00,WeatherTracker,2013-01-17 14:59:00,
2013-01-17 07:04:00,41.7,36.3,30.21,SSW,210,0.0,0.0,81,0.00,,,0.00,WeatherTracker,2013-01-17 15:04:00,
2013-01-17 07:09:00,41.6,36.2,30.21,SSW,210,0.0,0.0,81,0.00,,,0.00,WeatherTracker,2013-01-17 15:09:00,
2013-01-17 07:14:00,41.7,36.6,30.21,SSW,208,0.0,0.0,82,0.00,,,0.00,WeatherTracker,2013-01-17 15:14:00,
2013-01-17 07:19:00,41.7,36.6,30.21,SSW,210,0.0,0.0,82,0.00,,,0.00,WeatherTracker,2013-01-17 15:19:00,
2013-01-17 07:24:00,41.6,36.2,30.21,SSE,153,0.0,0.0,81,0.00,,,0.00,WeatherTracker,2013-01-17 15:24:00,
2013-01-17 07:29:00,42.1,37.0,30.21,ESE,117,0.0,0.0,82,0.00,,,0.00,WeatherTracker,2013-01-17 15:29:00,
2013-01-17 07:34:00,42.6,36.9,30.21,ESE,113,0.0,0.0,80,0.00,,,0.00,WeatherTracker,2013-01-17 15:34:00,
2013-01-17 07:39:00,43.0,37.3,30.22,ESE,121,2.0,0.0,80,0.00,,,0.00,WeatherTracker,2013-01-17 15:39:00,
2013-01-17 07:44:00,43.6,37.5,30.22,SE,136,0.0,0.0,79,0.00,,,0.00,WeatherTracker,2013-01-17 15:44:00,
2013-01-17 07:49:00,44.1,37.7,30.22,SE,138,1.0,0.0,78,0.00,,,0.00,WeatherTracker,2013-01-17 15:49:00,
2013-01-17 07:54:00,44.4,37.3,30.22,SE,130,0.0,0.0,76,0.00,,,0.00,WeatherTracker,2013-01-17 15:54:00,
2013-01-17 07:59:00,44.9,37.8,30.22,SE,146,0.0,0.0,76,0.00,,,0.00,WeatherTracker,2013-01-17 15:59:00,
2013-01-17 08:04:00,45.4,37.9,30.22,SSE,153,0.0,0.0,75,0.00,,,0.00,WeatherTracker,2013-01-17 16:04:00,
2013-01-17 08:09:00,46.0,38.5,30.22,SSE,155,0.0,0.0,75,0.00,,,0.00,WeatherTracker,2013-01-17 16:09:00,
2013-01-17 08:14:00,46.2,38.4,30.22,SSE,155,0.0,0.0,74,0.00,,,0.00,WeatherTracker,2013-01-17 16:14:00,
2013-01-17 08:19:00,46.5,37.6,30.22,ESE,110,1.0,0.0,71,0.00,,,0.00,WeatherTracker,2013-01-17 16:19:00,
2013-01-17 08:24:00,46.5,37.6,30.23,SE,131,1.0,0.0,71,0.00,,,0.00,WeatherTracker,2013-01-17 16:24:00,
2013-01-17 08:29:00,46.7,37.4,30.23,SE,136,2.0,0.0,70,0.00,,,0.00,WeatherTracker,2013-01-17 16:29:00,
2013-01-17 08:34:00,46.9,37.6,30.23,ESE,103,0.0,0.0,70,0.00,,,0.00,WeatherTracker,2013-01-17 16:34:00,
2013-01-17 08:39:00,47.4,38.1,30.23,ENE,61,0.0,0.0,70,0.00,,,0.00,WeatherTracker,2013-01-17 16:39:00,
2013-01-17 08:44:00,47.6,37.6,30.23,ENE,72,1.0,0.0,68,0.00,,,0.00,WeatherTracker,2013-01-17 16:44:00,
2013-01-17 08:50:00,47.7,37.7,30.23,East,87,1.0,0.0,68,0.00,,,0.00,WeatherTracker,2013-01-17 16:50:00,
2013-01-17 08:55:00,48.0,37.6,30.23,East,81,1.0,0.0,67,0.00,,,0.00,WeatherTracker,2013-01-17 16:55:00,
2013-01-17 09:00:00,47.9,37.1,30.23,ENE,75,3.0,0.0,66,0.00,,,0.00,WeatherTracker,2013-01-17 17:00:00,
2013-01-17 09:05:00,48.3,37.5,30.24,East,93,0.0,0.0,66,0.00,,,0.00,WeatherTracker,2013-01-17 17:05:00,
2013-01-17 09:10:00,48.7,37.5,30.24,East,81,2.0,0.0,65,0.00,,,0.00,WeatherTracker,2013-01-17 17:10:00,
2013-01-17 09:15:00,49.3,37.6,30.24,ENE,74,3.0,0.0,64,0.00,,,0.00,WeatherTracker,2013-01-17 17:15:00,
2013-01-17 09:20:00,49.5,37.0,30.24,East,90,4.0,0.0,62,0.00,,,0.00,WeatherTracker,2013-01-17 17:20:00,
2013-01-17 09:25:00,49.4,36.9,30.24,SE,125,3.0,0.0,62,0.00,,,0.00,WeatherTracker,2013-01-17 17:25:00,
2013-01-17 09:30:00,49.5,37.0,30.24,NE,49,4.0,0.0,62,0.00,,,0.00,WeatherTracker,2013-01-17 17:30:00,
2013-01-17 09:35:00,49.3,37.2,30.24,ENE,77,4.0,0.0,63,0.00,,,0.00,WeatherTracker,2013-01-17 17:35:00,
2013-01-17 09:40:00,49.4,37.3,30.24,East,82,2.0,0.0,63,0.00,,,0.00,WeatherTracker,2013-01-17 17:40:00,
2013-01-17 09:45:00,49.7,37.6,30.24,NE,49,2.0,0.0,63,0.00,,,0.00,WeatherTracker,2013-01-17 17:45:00,
2013-01-17 09:50:00,49.9,38.2,30.24,NE,53,4.0,0.0,64,0.00,,,0.00,WeatherTracker,2013-01-17 17:50:00,
2013-01-17 09:55:00,49.8,38.1,30.24,NNE,23,4.0,0.0,64,0.00,,,0.00,WeatherTracker,2013-01-17 17:55:00,
2013-01-17 10:00:00,49.6,37.9,30.24,East,90,2.0,0.0,64,0.00,,,0.00,WeatherTracker,2013-01-17 18:00:00,
2013-01-17 10:05:00,49.8,37.7,30.24,ENE,72,3.0,0.0,63,0.00,,,0.00,WeatherTracker,2013-01-17 18:05:00,
2013-01-17 10:10:00,49.8,38.1,30.24,ENE,75,3.0,0.0,64,0.00,,,0.00,WeatherTracker,2013-01-17 18:10:00,
2013-01-17 10:15:00,49.9,38.2,30.23,East,88,3.0,0.0,64,0.00,,,0.00,WeatherTracker,2013-01-17 18:15:00,
2013-01-17 10:20:00,50.3,39.0,30.23,East,93,1.0,0.0,65,0.00,,,0.00,WeatherTracker,2013-01-17 18:20:00,
2013-01-17 10:25:00,50.4,38.7,30.23,NE,49,1.0,0.0,64,0.00,,,0.00,WeatherTracker,2013-01-17 18:25:00,
2013-01-17 10:30:00,50.7,39.0,30.23,NE,56,4.0,0.0,64,0.00,,,0.00,WeatherTracker,2013-01-17 18:30:00,
2013-01-17 10:35:00,51.2,39.4,30.23,SE,129,3.0,0.0,64,0.00,,,0.00,WeatherTracker,2013-01-17 18:35:00,
2013-01-17 10:41:00,51.4,39.6,30.23,East,96,4.0,0.0,64,0.00,,,0.00,WeatherTracker,2013-01-17 18:41:00,
2013-01-17 10:46:00,51.4,39.6,30.22,NE,56,4.0,0.0,64,0.00,,,0.00,WeatherTracker,2013-01-17 18:46:00,
2013-01-17 10:51:00,51.6,39.8,30.22,ESE,123,3.0,0.0,64,0.00,,,0.00,WeatherTracker,2013-01-17 18:51:00,
2013-01-17 10:56:00,51.9,39.7,30.22,ESE,111,3.0,0.0,63,0.00,,,0.00,WeatherTracker,2013-01-17 18:56:00,
2013-01-17 11:01:00,52.2,39.6,30.22,ENE,75,4.0,0.0,62,0.00,,,0.00,WeatherTracker,2013-01-17 19:01:00,
2013-01-17 11:06:00,52.0,39.4,30.22,ENE,72,4.0,0.0,62,0.00,,,0.00,WeatherTracker,2013-01-17 19:06:00,
2013-01-17 11:11:00,52.1,39.5,30.22,East,86,2.0,0.0,62,0.00,,,0.00,WeatherTracker,2013-01-17 19:11:00,
2013-01-17 11:16:00,52.5,39.9,30.21,ENE,70,3.0,0.0,62,0.00,,,0.00,WeatherTracker,2013-01-17 19:16:00,
2013-01-17 11:21:00,52.7,40.0,30.21,East,86,3.0,0.0,62,0.00,,,0.00,WeatherTracker,2013-01-17 19:21:00,
2013-01-17 11:26:00,53.1,40.8,30.21,East,90,2.0,0.0,63,0.00,,,0.00,WeatherTracker,2013-01-17 19:26:00,
2013-01-17 11:31:00,53.1,40.4,30.20,ENE,61,2.0,0.0,62,0.00,,,0.00,WeatherTracker,2013-01-17 19:31:00,
2013-01-17 11:36:00,53.4,40.7,30.20,ESE,118,3.0,0.0,62,0.00,,,0.00,WeatherTracker,2013-01-17 19:36:00,
2013-01-17 11:41:00,53.6,40.5,30.20,ENE,75,2.0,0.0,61,0.00,,,0.00,WeatherTracker,2013-01-17 19:41:00,
2013-01-17 11:46:00,54.0,40.9,30.20,East,89,4.0,0.0,61,0.00,,,0.00,WeatherTracker,2013-01-17 19:46:00,
2013-01-17 11:51:00,54.4,40.8,30.19,East,89,3.0,0.0,60,0.00,,,0.00,WeatherTracker,2013-01-17 19:51:00,
2013-01-17 11:56:00,54.5,40.5,30.19,ESE,118,4.0,0.0,59,0.00,,,0.00,WeatherTracker,2013-01-17 19:56:00,
2013-01-17 12:01:00,55.1,41.0,30.19,East,80,4.0,0.0,59,0.00,,,0.00,WeatherTracker,2013-01-17 20:01:00,
2013-01-17 12:06:00,55.6,40.6,30.19,ENE,72,3.0,0.0,57,0.00,,,0.00,WeatherTracker,2013-01-17 20:06:00,
2013-01-17 12:11:00,56.1,40.6,30.18,NNE,29,2.0,0.0,56,0.00,,,0.00,WeatherTracker,2013-01-17 20:11:00,
2013-01-17 12:16:00,56.5,40.5,30.18,NNE,32,3.0,0.0,55,0.00,,,0.00,WeatherTracker,2013-01-17 20:16:00,
2013-01-17 12:21:00,57.2,40.7,30.18,East,91,0.0,0.0,54,0.00,,,0.00,WeatherTracker,2013-01-17 20:21:00,
2013-01-17 12:26:00,58.1,38.0,30.18,NNE,13,0.0,0.0,47,0.00,,,0.00,WeatherTracker,2013-01-17 20:26:00,
2013-01-17 12:32:00,58.5,37.2,30.17,North,6,3.0,0.0,45,0.00,,,0.00,WeatherTracker,2013-01-17 20:32:00,
2013-01-17 12:37:00,59.3,36.8,30.17,NE,51,4.0,0.0,43,0.00,,,0.00,WeatherTracker,2013-01-17 20:37:00,
2013-01-17 12:42:00,59.6,35.3,30.17,ENE,65,4.0,0.0,40,0.00,,,0.00,WeatherTracker,2013-01-17 20:42:00,
2013-01-17 12:47:00,60.1,36.3,30.17,North,359,4.0,0.0,41,0.00,,,0.00,WeatherTracker,2013-01-17 20:47:00,
2013-01-17 12:52:00,60.3,35.2,30.16,NNE,13,4.0,0.0,39,0.00,,,0.00,WeatherTracker,2013-01-17 20:52:00,
2013-01-17 12:57:00,60.4,35.3,30.16,NNE,32,4.0,0.0,39,0.00,,,0.00,WeatherTracker,2013-01-17 20:57:00,
2013-01-17 13:02:00,60.5,35.4,30.16,North,1,6.0,0.0,39,0.00,,,0.00,WeatherTracker,2013-01-17 21:02:00,
2013-01-17 13:07:00,61.1,36.0,30.16,North,5,5.0,0.0,39,0.00,,,0.00,WeatherTracker,2013-01-17 21:07:00,
2013-01-17 13:12:00,61.1,35.3,30.16,NNE,18,4.0,0.0,38,0.00,,,0.00,WeatherTracker,2013-01-17 21:12:00,
2013-01-17 13:17:00,61.2,34.0,30.15,NNW,346,3.0,0.0,36,0.00,,,0.00,WeatherTracker,2013-01-17 21:17:00,
2013-01-17 13:22:00,61.1,33.9,30.15,North,8,5.0,0.0,36,0.00,,,0.00,WeatherTracker,2013-01-17 21:22:00,
2013-01-17 13:27:00,61.3,33.4,30.15,ENE,65,3.0,0.0,35,0.00,,,0.00,WeatherTracker,2013-01-17 21:27:00,
2013-01-17 13:32:00,61.5,33.6,30.15,North,349,5.0,0.0,35,0.00,,,0.00,WeatherTracker,2013-01-17 21:32:00,
2013-01-17 13:37:00,61.8,33.9,30.15,NNE,22,2.0,0.0,35,0.00,,,0.00,WeatherTracker,2013-01-17 21:37:00,
2013-01-17 13:42:00,62.1,34.8,30.14,NNE,16,5.0,0.0,36,0.00,,,0.00,WeatherTracker,2013-01-17 21:42:00,
2013-01-17 13:47:00,62.4,34.4,30.14,NNW,345,5.0,0.0,35,0.00,,,0.00,WeatherTracker,2013-01-17 21:47:00,
2013-01-17 13:52:00,62.6,33.8,30.14,NNE,27,2.0,0.0,34,0.00,,,0.00,WeatherTracker,2013-01-17 21:52:00,
2013-01-17 13:57:00,62.5,32.2,30.14,North,8,5.0,0.0,32,0.00,,,0.00,WeatherTracker,2013-01-17 21:57:00,
2013-01-17 14:02:00,62.6,35.3,30.14,East,89,3.0,0.0,36,0.00,,,0.00,WeatherTracker,2013-01-17 22:02:00,
2013-01-17 14:07:00,62.6,33.1,30.14,ENE,63,4.0,0.0,33,0.00,,,0.00,WeatherTracker,2013-01-17 22:07:00,
2013-01-17 14:13:00,62.6,34.6,30.14,East,82,4.0,0.0,35,0.00,,,0.00,WeatherTracker,2013-01-17 22:13:00,
2013-01-17 14:18:00,62.6,33.8,30.14,NE,51,4.0,0.0,34,0.00,,,0.00,WeatherTracker,2013-01-17 22:18:00,
2013-01-17 14:23:00,62.6,33.8,30.14,East,84,3.0,0.0,34,0.00,,,0.00,WeatherTracker,2013-01-17 22:23:00,
2013-01-17 14:28:00,62.7,33.9,30.14,East,88,5.0,0.0,34,0.00,,,0.00,WeatherTracker,2013-01-17 22:28:00,
2013-01-17 14:33:00,62.5,33.7,30.13,ENE,69,4.0,0.0,34,0.00,,,0.00,WeatherTracker,2013-01-17 22:33:00,
2013-01-17 14:38:00,62.8,33.3,30.13,ENE,65,2.0,0.0,33,0.00,,,0.00,WeatherTracker,2013-01-17 22:38:00,
2013-01-17 14:43:00,62.9,33.4,30.13,East,79,2.0,0.0,33,0.00,,,0.00,WeatherTracker,2013-01-17 22:43:00,
2013-01-17 14:48:00,63.0,33.4,30.13,NNW,342,2.0,0.0,33,0.00,,,0.00,WeatherTracker,2013-01-17 22:48:00,
2013-01-17 14:53:00,62.9,33.4,30.13,NNE,22,6.0,0.0,33,0.00,,,0.00,WeatherTracker,2013-01-17 22:53:00,
2013-01-17 14:58:00,63.0,33.4,30.13,East,94,0.0,0.0,33,0.00,,,0.00,WeatherTracker,2013-01-17 22:58:00,
2013-01-17 15:03:00,63.0,34.2,30.13,ENE,63,2.0,0.0,34,0.00,,,0.00,WeatherTracker,2013-01-17 23:03:00,
2013-01-17 15:08:00,63.0,33.4,30.13,ENE,70,4.0,0.0,33,0.00,,,0.00,WeatherTracker,2013-01-17 23:08:00,
2013-01-17 15:13:00,62.4,34.4,30.13,NE,54,0.0,0.0,35,0.00,,,0.00,WeatherTracker,2013-01-17 23:13:00,
2013-01-17 15:18:00,62.4,33.7,30.13,ENE,77,4.0,0.0,34,0.00,,,0.00,WeatherTracker,2013-01-17 23:18:00,
2013-01-17 15:23:00,62.2,33.5,30.13,East,91,3.0,0.0,34,0.00,,,0.00,WeatherTracker,2013-01-17 23:23:00,
2013-01-17 15:28:00,62.2,34.2,30.13,ENE,68,3.0,0.0,35,0.00,,,0.00,WeatherTracker,2013-01-17 23:28:00,
2013-01-17 15:33:00,62.1,34.1,30.13,East,96,3.0,0.0,35,0.00,,,0.00,WeatherTracker,2013-01-17 23:33:00,
2013-01-17 15:38:00,62.2,34.2,30.13,ENE,72,2.0,0.0,35,0.00,,,0.00,WeatherTracker,2013-01-17 23:38:00,
2013-01-17 15:43:00,62.2,34.2,30.13,ENE,77,3.0,0.0,35,0.00,,,0.00,WeatherTracker,2013-01-17 23:43:00,
2013-01-17 15:48:00,62.3,34.3,30.13,East,95,3.0,0.0,35,0.00,,,0.00,WeatherTracker,2013-01-17 23:48:00,
2013-01-17 15:53:00,62.4,34.4,30.13,ENE,62,2.0,0.0,35,0.00,,,0.00,WeatherTracker,2013-01-17 23:53:00,
2013-01-17 15:58:00,62.4,33.7,30.13,East,99,3.0,0.0,34,0.00,,,0.00,WeatherTracker,2013-01-17 23:58:00,
2013-01-17 16:03:00,62.4,34.4,30.13,East,93,2.0,0.0,35,0.00,,,0.00,WeatherTracker,2013-01-18 00:03:00,
2013-01-17 16:09:00,62.6,33.8,30.13,East,82,4.0,0.0,34,0.00,,,0.00,WeatherTracker,2013-01-18 00:09:00,
2013-01-17 16:14:00,62.6,33.8,30.13,East,82,2.0,0.0,34,0.00,,,0.00,WeatherTracker,2013-01-18 00:14:00,
2013-01-17 16:19:00,62.5,34.5,30.13,ENE,77,3.0,0.0,35,0.00,,,0.00,WeatherTracker,2013-01-18 00:19:00,
2013-01-17 16:24:00,62.4,33.7,30.13,ENE,66,3.0,0.0,34,0.00,,,0.00,WeatherTracker,2013-01-18 00:24:00,
2013-01-17 16:29:00,62.2,34.2,30.13,East,86,1.0,0.0,35,0.00,,,0.00,WeatherTracker,2013-01-18 00:29:00,
2013-01-17 16:34:00,62.0,34.0,30.13,ENE,69,1.0,0.0,35,0.00,,,0.00,WeatherTracker,2013-01-18 00:34:00,
2013-01-17 16:39:00,61.9,33.9,30.13,ENE,77,2.0,0.0,35,0.00,,,0.00,WeatherTracker,2013-01-18 00:39:00,
2013-01-17 16:44:00,61.6,33.7,30.13,East,95,2.0,0.0,35,0.00,,,0.00,WeatherTracker,2013-01-18 00:44:00,
2013-01-17 16:49:00,61.4,33.5,30.13,ENE,58,3.0,0.0,35,0.00,,,0.00,WeatherTracker,2013-01-18 00:49:00,
2013-01-17 16:54:00,61.1,33.9,30.13,ENE,57,1.0,0.0,36,0.00,,,0.00,WeatherTracker,2013-01-18 00:54:00,
2013-01-17 16:59:00,60.8,33.7,30.13,ENE,75,1.0,0.0,36,0.00,,,0.00,WeatherTracker,2013-01-18 00:59:00,
2013-01-17 17:04:00,60.4,34.7,30.13,NNW,330,2.0,0.0,38,0.00,,,0.00,WeatherTracker,2013-01-18 01:04:00,
2013-01-17 17:09:00,59.8,35.4,30.13,NW,316,4.0,0.0,40,0.00,,,0.00,WeatherTracker,2013-01-18 01:09:00,
2013-01-17 17:14:00,59.2,35.5,30.13,NW,314,3.0,0.0,41,0.00,,,0.00,WeatherTracker,2013-01-18 01:14:00,
2013-01-17 17:19:00,58.8,35.8,30.13,WNW,298,1.0,0.0,42,0.00,,,0.00,WeatherTracker,2013-01-18 01:19:00,
2013-01-17 17:24:00,58.5,36.1,30.13,WNW,296,1.0,0.0,43,0.00,,,0.00,WeatherTracker,2013-01-18 01:24:00,
2013-01-17 17:29:00,58.3,35.9,30.13,WNW,302,1.0,0.0,43,0.00,,,0.00,WeatherTracker,2013-01-18 01:29:00,
2013-01-17 17:34:00,58.0,36.2,30.13,WNW,285,1.0,0.0,44,0.00,,,0.00,WeatherTracker,2013-01-18 01:34:00,
2013-01-17 17:39:00,57.7,36.5,30.13,WNW,290,0.0,0.0,45,0.00,,,0.00,WeatherTracker,2013-01-18 01:39:00,
2013-01-17 17:44:00,57.5,36.9,30.13,NW,324,0.0,0.0,46,0.00,,,0.00,WeatherTracker,2013-01-18 01:44:00,
2013-01-17 17:50:00,57.4,36.8,30.14,NW,316,0.0,0.0,46,0.00,,,0.00,WeatherTracker,2013-01-18 01:50:00,
2013-01-17 17:55:00,57.3,36.1,30.14,NW,305,1.0,0.0,45,0.00,,,0.00,WeatherTracker,2013-01-18 01:55:00,
2013-01-17 18:00:00,57.3,36.1,30.14,NW,321,1.0,0.0,45,0.00,,,0.00,WeatherTracker,2013-01-18 02:00:00,
2013-01-17 18:05:00,57.3,36.1,30.14,WNW,302,0.0,0.0,45,0.00,,,0.00,WeatherTracker,2013-01-18 02:05:00,
2013-01-17 18:10:00,57.1,36.0,30.14,WNW,300,0.0,0.0,45,0.00,,,0.00,WeatherTracker,2013-01-18 02:10:00,
2013-01-17 18:15:00,57.0,34.7,30.14,WNW,300,0.0,0.0,43,0.00,,,0.00,WeatherTracker,2013-01-18 02:15:00,
2013-01-17 18:20:00,57.0,34.1,30.14,WNW,300,1.0,0.0,42,0.00,,,0.00,WeatherTracker,2013-01-18 02:20:00,
2013-01-17 18:25:00,56.8,35.1,30.14,NW,304,0.0,0.0,44,0.00,,,0.00,WeatherTracker,2013-01-18 02:25:00,
2013-01-17 18:30:00,56.4,34.8,30.14,WNW,302,1.0,0.0,44,0.00,,,0.00,WeatherTracker,2013-01-18 02:30:00,
2013-01-17 18:35:00,56.3,35.8,30.14,West,259,1.0,0.0,46,0.00,,,0.00,WeatherTracker,2013-01-18 02:35:00,
2013-01-17 18:40:00,56.0,35.5,30.14,WSW,248,0.0,0.0,46,0.00,,,0.00,WeatherTracker,2013-01-18 02:40:00,
2013-01-17 18:45:00,55.6,36.2,30.14,WSW,249,1.0,0.0,48,0.00,,,0.00,WeatherTracker,2013-01-18 02:45:00,
2013-01-17 18:50:00,55.3,35.9,30.14,West,280,2.0,0.0,48,0.00,,,0.00,WeatherTracker,2013-01-18 02:50:00,
2013-01-17 18:55:00,55.1,36.3,30.14,West,281,1.0,0.0,49,0.00,,,0.00,WeatherTracker,2013-01-18 02:55:00,
2013-01-17 19:00:00,54.9,36.1,30.14,WNW,283,1.0,0.0,49,0.00,,,0.00,WeatherTracker,2013-01-18 03:00:00,
2013-01-17 19:05:00,54.8,36.0,30.14,WNW,283,0.0,0.0,49,0.00,,,0.00,WeatherTracker,2013-01-18 03:05:00,
2013-01-17 19:10:00,54.6,35.8,30.14,WNW,283,0.0,0.0,49,0.00,,,0.00,WeatherTracker,2013-01-18 03:10:00,
2013-01-17 19:15:00,54.5,35.7,30.14,West,273,0.0,0.0,49,0.00,,,0.00,WeatherTracker,2013-01-18 03:15:00,
2013-01-17 19:20:00,54.3,35.6,30.14,WNW,298,0.0,0.0,49,0.00,,,0.00,WeatherTracker,2013-01-18 03:20:00,
2013-01-17 19:25:00,54.2,35.5,30.14,WNW,297,0.0,0.0,49,0.00,,,0.00,WeatherTracker,2013-01-18 03:25:00,
2013-01-17 19:30:00,54.1,35.9,30.14,WNW,288,1.0,0.0,50,0.00,,,0.00,WeatherTracker,2013-01-18 03:30:00,
2013-01-17 19:35:00,54.0,35.3,30.14,WNW,293,0.0,0.0,49,0.00,,,0.00,WeatherTracker,2013-01-18 03:35:00,
2013-01-17 19:40:00,54.0,35.3,30.14,WNW,302,1.0,0.0,49,0.00,,,0.00,WeatherTracker,2013-01-18 03:40:00,
2013-01-17 19:45:00,54.0,35.3,30.14,West,281,0.0,0.0,49,0.00,,,0.00,WeatherTracker,2013-01-18 03:45:00,
2013-01-17 19:50:00,53.9,35.2,30.14,WNW,291,1.0,0.0,49,0.00,,,0.00,WeatherTracker,2013-01-18 03:50:00,
2013-01-17 19:55:00,53.8,35.1,30.14,NW,315,2.0,0.0,49,0.00,,,0.00,WeatherTracker,2013-01-18 03:55:00,
2013-01-17 20:00:00,53.9,35.2,30.14,NW,307,2.0,0.0,49,0.00,,,0.00,WeatherTracker,2013-01-18 04:00:00,
2013-01-17 20:05:00,53.8,35.1,30.14,WNW,288,0.0,0.0,49,0.00,,,0.00,WeatherTracker,2013-01-18 04:05:00,
2013-01-17 20:11:00,53.7,35.0,30.14,WNW,288,0.0,0.0,49,0.00,,,0.00,WeatherTracker,2013-01-18 04:11:00,
2013-01-17 20:16:00,53.5,35.3,30.14,WSW,246,0.0,0.0,50,0.00,,,0.00,WeatherTracker,2013-01-18 04:16:00,
2013-01-17 20:21:00,53.3,35.1,30.14,West,268,0.0,0.0,50,0.00,,,0.00,WeatherTracker,2013-01-18 04:21:00,
2013-01-17 20:26:00,53.2,35.0,30.14,WNW,293,1.0,0.0,50,0.00,,,0.00,WeatherTracker,2013-01-18 04:26:00,
2013-01-17 20:31:00,53.1,35.0,30.14,West,262,0.0,0.0,50,0.00,,,0.00,WeatherTracker,2013-01-18 04:31:00,
2013-01-17 20:36:00,52.9,35.3,30.14,West,278,1.0,0.0,51,0.00,,,0.00,WeatherTracker,2013-01-18 04:36:00,
2013-01-17 20:41:00,52.7,35.1,30.14,WNW,288,0.0,0.0,51,0.00,,,0.00,WeatherTracker,2013-01-18 04:41:00,
2013-01-17 20:46:00,52.7,35.6,30.14,West,271,1.0,0.0,52,0.00,,,0.00,WeatherTracker,2013-01-18 04:46:00,
2013-01-17 20:51:00,52.7,35.1,30.14,NW,316,2.0,0.0,51,0.00,,,0.00,WeatherTracker,2013-01-18 04:51:00,
2013-01-17 20:56:00,52.8,35.2,30.14,WNW,290,0.0,0.0,51,0.00,,,0.00,WeatherTracker,2013-01-18 04:56:00,
2013-01-17 21:00:00,52.7,35.1,30.14,West,264,1.0,0.0,51,0.00,,,0.00,WeatherTracker,2013-01-18 05:00:00,
2013-01-17 21:01:00,52.7,35.1,30.14,West,263,0.0,0.0,51,0.00,,,0.00,WeatherTracker,2013-01-18 05:01:00,
2013-01-17 21:06:00,52.6,35.5,30.14,West,270,0.0,0.0,52,0.00,,,0.00,WeatherTracker,2013-01-18 05:06:00,
2013-01-17 21:11:00,52.5,35.4,30.14,West,269,0.0,0.0,52,0.00,,,0.00,WeatherTracker,2013-01-18 05:11:00,
2013-01-17 21:16:00,52.3,35.7,30.15,West,270,1.0,0.0,53,0.00,,,0.00,WeatherTracker,2013-01-18 05:16:00,
2013-01-17 21:21:00,52.1,36.0,30.15,WSW,250,0.0,0.0,54,0.00,,,0.00,WeatherTracker,2013-01-18 05:21:00,
2013-01-17 21:26:00,51.8,35.7,30.15,WSW,250,0.0,0.0,54,0.00,,,0.00,WeatherTracker,2013-01-18 05:26:00,
2013-01-17 21:31:00,51.6,36.0,30.15,WSW,250,0.0,0.0,55,0.00,,,0.00,WeatherTracker,2013-01-18 05:31:00,
2013-01-17 21:36:00,51.6,36.0,30.15,WSW,250,0.0,0.0,55,0.00,,,0.00,WeatherTracker,2013-01-18 05:36:00,
2013-01-17 21:41:00,51.4,36.2,30.15,WSW,250,1.0,0.0,56,0.00,,,0.00,WeatherTracker,2013-01-18 05:41:00,
2013-01-17 21:46:00,51.3,36.1,30.15,WSW,250,0.0,0.0,56,0.00,,,0.00,WeatherTracker,2013-01-18 05:46:00,
2013-01-17 21:51:00,51.2,35.6,30.15,West,259,0.0,0.0,55,0.00,,,0.00,WeatherTracker,2013-01-18 05:51:00,
2013-01-17 21:56:00,51.4,35.3,30.15,WNW,302,0.0,0.0,54,0.00,,,0.00,WeatherTracker,2013-01-18 05:56:00,
2013-01-17 22:02:00,51.7,35.1,30.15,NW,316,1.0,0.0,53,0.00,,,0.00,WeatherTracker,2013-01-18 06:02:00,
2013-01-17 22:07:00,51.8,34.7,30.15,NW,321,0.0,0.0,52,0.00,,,0.00,WeatherTracker,2013-01-18 06:07:00,
2013-01-17 22:12:00,52.0,34.9,30.15,NW,321,0.0,0.0,52,0.00,,,0.00,WeatherTracker,2013-01-18 06:12:00,
2013-01-17 22:17:00,51.9,34.8,30.15,NW,312,0.0,0.0,52,0.00,,,0.00,WeatherTracker,2013-01-18 06:17:00,
2013-01-17 22:22:00,51.8,34.7,30.15,NW,321,1.0,0.0,52,0.00,,,0.00,WeatherTracker,2013-01-18 06:22:00,
2013-01-17 22:27:00,51.7,35.1,30.15,NW,322,0.0,0.0,53,0.00,,,0.00,WeatherTracker,2013-01-18 06:27:00,
2013-01-17 22:32:00,51.6,35.0,30.15,NW,321,0.0,0.0,53,0.00,,,0.00,WeatherTracker,2013-01-18 06:32:00,
2013-01-17 22:37:00,51.4,35.3,30.15,NW,321,0.0,0.0,54,0.00,,,0.00,WeatherTracker,2013-01-18 06:37:00,
2013-01-17 22:42:00,51.3,35.2,30.15,NW,321,0.0,0.0,54,0.00,,,0.00,WeatherTracker,2013-01-18 06:42:00,
2013-01-17 22:47:00,51.2,35.6,30.15,NW,307,0.0,0.0,55,0.00,,,0.00,WeatherTracker,2013-01-18 06:47:00,
2013-01-17 22:52:00,51.1,35.5,30.15,NW,307,0.0,0.0,55,0.00,,,0.00,WeatherTracker,2013-01-18 06:52:00,
2013-01-17 22:57:00,51.0,35.4,30.15,NW,307,0.0,0.0,55,0.00,,,0.00,WeatherTracker,2013-01-18 06:57:00,
2013-01-17 23:02:00,50.9,35.3,30.15,NW,307,0.0,0.0,55,0.00,,,0.00,WeatherTracker,2013-01-18 07:02:00,
2013-01-17 23:07:00,50.8,35.2,30.15,NW,305,0.0,0.0,55,0.00,,,0.00,WeatherTracker,2013-01-18 07:07:00,
2013-01-17 23:12:00,50.4,35.3,30.15,NW,305,0.0,0.0,56,0.00,,,0.00,WeatherTracker,2013-01-18 07:12:00,
2013-01-17 23:17:00,49.9,35.7,30.15,NW,304,0.0,0.0,58,0.00,,,0.00,WeatherTracker,2013-01-18 07:17:00,
2013-01-17 23:22:00,49.4,35.7,30.15,NW,305,0.0,0.0,59,0.00,,,0.00,WeatherTracker,2013-01-18 07:22:00,
2013-01-17 23:27:00,49.0,36.1,30.16,NW,305,0.0,0.0,61,0.00,,,0.00,WeatherTracker,2013-01-18 07:27:00,
2013-01-17 23:32:00,48.8,36.0,30.16,NW,304,0.0,0.0,61,0.00,,,0.00,WeatherTracker,2013-01-18 07:32:00,
2013-01-17 23:37:00,48.4,36.0,30.16,NW,305,0.0,0.0,62,0.00,,,0.00,WeatherTracker,2013-01-18 07:37:00,
2013-01-17 23:42:00,48.2,36.2,30.16,SSW,210,0.0,0.0,63,0.00,,,0.00,WeatherTracker,2013-01-18 07:42:00,
2013-01-17 23:47:00,47.8,35.8,30.16,SSW,210,0.0,0.0,63,0.00,,,0.00,WeatherTracker,2013-01-18 07:47:00,
2013-01-17 23:53:00,47.3,36.1,30.16,SSW,210,0.0,0.0,65,0.00,,,0.00,WeatherTracker,2013-01-18 07:53:00,
2013-01-17 23:57:00,47.0,36.2,30.16,SSW,210,0.0,0.0,66,0.00,,,0.00,WeatherTracker,2013-01-18 07:57:00,